Theta_e
357 362 367 368 368 368 365 365 365 364 362 361 361 362 362 362 362 363 364 364 363 364 363 361 360 358 357 352 355 356 356 355 354 353 352 352 352 350 349 347 349 346 350
362 362 365 367 368 368 366 365 365 363 362 360 362 362 362 362 362 364 364 364 363 362 362 360 358 357 356 354 356 356 356 355 354 354 352 351 351 350 348 348 353 351 351
363 364 362 366 367 368 366 365 364 362 361 361 362 362 362 362 363 364 364 364 363 360 361 360 357 354 354 354 355 355 355 355 353 353 354 347 344 350 348 348 348 350 350
365 366 363 365 367 367 366 364 363 362 361 362 362 362 362 362 363 363 364 363 361 358 357 356 355 355 353 354 354 354 354 353 353 353 353 346 343 349 349 349 347 348 349
365 366 367 366 366 366 366 364 362 362 362 362 362 362 362 362 363 363 364 363 360 357 355 355 355 355 355 354 353 353 352 351 352 352 350 346 346 348 350 349 348 347 347
364 364 364 364 364 365 365 364 363 363 363 362 362 362 362 362 362 362 362 361 358 355 354 354 355 355 355 355 355 355 355 355 356 355 351 348 351 351 351 349 349 348 347
360 365 365 364 364 364 365 364 363 363 362 362 362 362 362 362 361 361 361 359 356 355 354 354 354 354 355 355 355 353 351 352 348 347 347 349 353 354 352 350 349 348 347
356 362 363 363 363 363 363 363 362 362 362 362 362 362 362 361 361 360 360 358 357 356 356 355 354 353 354 354 351 350 350 350 347 346 344 349 351 355 353 352 352 351 351
357 358 360 359 362 362 362 361 361 361 360 360 360 360 360 360 360 360 360 358 357 357 357 356 355 354 353 352 351 351 351 350 347 346 343 342 354 353 351 353 354 354 353
356 356 357 355 355 357 360 361 360 360 360 359 359 359 359 360 359 360 358 358 357 355 357 356 355 354 353 352 352 352 351 351 346 344 343 345 355 353 352 353 354 357 357
353 356 355 354 353 351 351 358 359 359 359 359 359 359 356 353 356 357 353 357 357 355 354 355 356 355 354 353 353 353 351 343 341 340 338 346 343 339 341 348 354 356 358
349 352 354 357 354 352 350 356 353 353 354 355 353 356 353 352 354 350 354 357 357 355 354 355 354 353 351 343 344 352 345 340 341 340 337 345 343 339 340 348 351 357 358
350 353 353 359 359 354 350 355 349 350 350 351 353 355 356 351 353 349 350 350 352 352 347 347 345 341 338 340 340 343 345 342 340 338 340 346 343 340 343 349 352 354 356
350 354 357 360 360 360 352 351 351 349 351 351 352 356 356 349 353 353 345 349 352 347 348 345 341 344 340 339 340 341 342 340 338 336 339 348 343 344 343 347 352 355 356
351 354 357 360 361 361 360 354 355 351 351 353 353 356 356 351 356 352 353 346 348 346 345 346 343 346 342 342 341 340 339 338 338 336 335 348 344 344 347 348 350 354 357
349 353 357 359 360 361 361 361 358 359 356 353 354 355 358 357 362 355 354 349 349 344 344 345 346 345 343 343 341 340 339 339 338 339 335 336 347 345 347 349 349 352 356
345 349 353 359 360 362 364 362 359 356 354 354 354 361 358 362 363 362 354 355 356 357 362 357 354 350 346 344 344 341 341 344 341 342 342 340 338 344 345 347 349 351 354
335 343 352 348 358 362 361 358 356 359 357 354 354 355 358 359 360 363 360 354 355 358 355 352 352 350 349 347 348 345 346 349 347 349 349 348 345 342 345 345 347 351 354
341 342 344 347 349 360 363 357 355 357 359 358 356 355 356 354 357 358 354 352 358 362 356 354 353 353 350 348 347 349 350 349 351 347 352 353 354 350 347 348 348 349 352
337 338 341 344 348 360 355 358 349 353 359 366 356 354 356 352 354 357 354 355 357 355 357 355 353 351 352 349 345 343 349 347 349 350 350 351 352 355 354 351 349 346 348
334 342 344 343 354 351 341 337 339 341 344 348 354 359 359 358 356 359 348 345 351 350 354 358 353 349 344 348 348 345 345 350 351 347 351 348 350 351 352 351 352 348 345
335 340 345 344 348 346 339 345 339 337 336 343 356 356 358 356 355 358 355 348 353 347 355 349 352 344 348 347 341 341 332 335 342 345 348 348 350 348 346 350 350 354 353
337 340 344 348 350 349 349 347 348 348 347 344 349 350 358 358 357 357 355 356 351 322 326 330 339 342 339 342 342 338 329 323 330 339 345 346 350 346 346 349 351 351 355
334 335 337 338 341 342 347 349 350 343 347 348 355 354 350 351 351 353 350 352 347 329 333 326 343 346 346 340 344 342 342 339 326 325 337 343 346 345 348 345 345 347 351
329 330 331 332 332 333 334 336 339 337 333 337 340 341 344 342 340 337 342 347 351 352 349 347 347 349 347 343 341 339 340 339 340 332 327 328 337 339 342 345 344 344 347
325 326 328 328 328 329 329 329 330 328 328 326 328 326 327 328 329 334 333 336 339 341 345 347 348 349 348 347 344 341 337 335 332 333 331 331 332 333 338 341 344 344 346
Wind_Speed
18 18 12 16 17 15 17 16 15 15 14 15 14 13 12 12 12 12 12 11 11 10 11 11 9 8 9 8 8 9 10 11 11 11 10 9 9 7 5 3 2 11 7
20 18 11 13 17 16 16 16 15 16 15 14 14 14 12 11 11 11 11 11 11 11 11 10 9 9 9 9 9 9 9 9 8 7 9 9 8 6 4 4 11 11 6
19 19 15 12 15 16 16 16 15 16 16 15 14 14 12 11 11 11 11 11 10 11 10 9 9 9 9 8 8 8 8 7 5 7 11 8 10 6 4 4 7 6 5
18 16 17 14 14 15 15 15 15 15 15 15 15 14 14 12 11 11 11 11 10 10 9 8 9 8 8 8 7 7 6 4 5 7 10 7 10 9 5 4 3 4 4
16 16 15 13 15 16 16 16 15 14 15 14 14 14 13 13 12 11 10 9 10 9 8 8 8 8 8 7 6 5 5 3 8 10 10 4 9 11 8 5 7 5 3
15 17 18 13 14 16 16 17 17 15 15 15 14 13 12 12 11 11 10 9 9 8 8 8 7 6 7 6 5 4 3 4 9 12 4 5 6 13 10 7 3 2 3
15 17 15 14 14 14 16 17 16 17 16 16 15 14 13 11 11 10 10 9 9 9 8 7 6 6 5 5 4 3 1 5 11 11 3 2 10 12 10 7 5 4 4
14 15 16 14 14 14 15 15 16 16 16 15 15 14 13 12 10 9 9 9 8 8 8 7 6 5 4 3 2 1 2 6 11 8 3 3 13 11 8 6 6 6 7
15 14 16 16 15 13 13 14 13 13 14 14 15 15 13 13 12 10 7 7 8 8 8 8 6 5 4 4 3 3 5 7 10 10 4 4 11 9 7 7 8 8 9
14 15 16 16 15 14 13 12 13 13 12 12 13 13 14 12 12 11 10 9 7 7 8 9 8 7 6 5 5 6 7 9 11 11 7 4 12 8 6 8 9 10 10
13 15 15 15 14 14 15 12 12 12 12 12 11 10 10 10 12 14 12 14 12 9 7 7 7 7 7 8 9 10 8 8 11 6 4 10 10 7 6 7 8 12 12
14 15 15 14 14 13 12 14 12 12 11 10 11 12 10 11 11 11 11 12 10 11 11 10 9 8 8 9 10 14 8 10 8 6 6 11 9 5 5 7 8 10 13
13 13 15 14 11 12 10 11 8 8 7 8 11 10 11 9 8 8 7 8 8 11 8 11 11 9 12 10 9 9 11 7 6 6 3 10 8 3 6 8 9 9 12
6 13 6 14 10 9 7 8 9 9 9 8 10 11 8 7 7 7 7 10 9 8 10 9 8 9 11 12 11 10 8 6 6 5 1 10 7 4 7 10 10 11 12
16 16 9 10 7 7 5 4 5 6 8 8 9 11 9 9 6 7 6 7 7 9 9 8 9 7 10 10 10 10 10 10 9 6 6 11 12 11 11 12 13 13 13
8 11 8 7 9 7 7 4 3 3 5 6 7 9 13 9 6 6 6 7 7 8 8 7 8 8 9 10 11 11 10 9 10 9 8 8 11 13 15 15 15 15 14
10 12 13 14 13 10 9 9 7 8 7 7 8 9 10 11 9 9 8 7 7 7 7 5 7 7 8 9 10 9 9 10 10 11 9 9 10 15 16 17 16 15 15
10 14 13 12 15 14 10 8 7 4 6 8 9 9 10 9 11 8 6 8 8 6 8 8 9 11 11 12 10 10 9 10 11 11 10 9 9 8 8 17 17 16 15
13 12 15 9 14 13 10 6 5 5 4 6 7 10 10 10 14 11 11 7 7 5 9 8 8 9 8 10 10 9 9 9 11 10 11 9 9 9 8 10 16 16 16
11 4 5 6 7 11 10 9 7 2 1 3 10 9 11 12 10 11 9 9 9 8 9 11 10 7 10 9 8 9 9 9 8 9 9 9 11 11 10 9 7 9 19
5 10 8 5 7 6 9 9 6 6 4 5 9 10 14 7 9 12 11 9 8 9 12 12 9 8 5 5 9 9 9 10 10 9 9 9 10 12 12 12 7 8 7
6 7 7 5 4 3 4 2 4 5 6 3 6 9 11 11 10 13 16 10 9 8 10 11 9 7 8 7 8 5 8 7 10 11 9 9 9 8 8 8 8 6 6
8 5 6 7 7 7 3 3 1 4 5 5 6 8 7 8 12 11 13 11 7 7 2 16 14 19 7 11 13 5 7 8 7 6 10 9 7 7 8 7 8 7 7
9 9 8 8 8 9 7 5 4 5 4 3 3 1 7 4 8 7 10 10 6 4 6 14 18 11 9 10 5 9 12 11 7 10 7 10 9 9 10 10 11 11 9
9 10 10 11 12 11 11 8 1 5 3 3 3 5 6 6 5 7 9 10 6 10 10 9 10 9 10 7 8 8 9 8 11 12 11 8 9 8 9 10 12 11 11
11 10 10 11 11 9 8 8 6 4 4 4 5 6 6 6 7 5 6 7 9 10 10 6 11 12 10 11 12 10 11 11 11 9 11 12 14 9 10 9 9 8 8
Wind_Direction
121 129 127 128 129 136 138 138 135 135 136 137 134 133 136 133 128 122 120 115 111 115 128 128 126 122 123 124 110 103 97 95 93 97 102 104 104 107 108 100 317 99 104
124 141 130 129 128 136 141 141 138 137 137 139 137 136 138 134 132 130 124 118 116 119 129 128 126 128 133 137 129 120 109 104 105 125 131 124 115 117 111 57 19 96 108
128 142 153 132 132 136 143 143 140 141 142 143 142 139 140 138 137 133 124 120 123 124 128 133 136 138 141 137 130 120 114 109 138 179 188 159 120 136 123 83 77 108 121
130 149 151 140 136 136 140 140 141 143 146 146 144 143 143 144 143 139 130 129 132 132 136 142 145 144 141 136 134 128 119 129 225 235 227 171 132 145 143 126 122 134 149
141 159 135 142 140 139 141 140 142 146 146 144 143 145 148 146 145 141 136 135 138 142 148 153 154 149 145 144 137 133 136 185 253 261 249 90 138 140 154 162 173 187 196
147 166 128 141 143 143 145 145 145 146 144 144 144 146 148 148 146 144 143 143 146 154 160 160 159 156 157 153 149 151 155 250 276 252 34 108 52 143 157 189 270 134 180
155 131 147 143 144 145 147 146 145 145 146 146 147 149 150 151 150 149 149 152 154 164 165 163 164 166 172 173 170 169 198 287 284 295 175 162 122 147 164 191 204 214 223
154 134 143 141 141 143 145 145 143 145 147 150 149 153 154 153 154 154 156 157 160 169 171 174 172 180 189 194 196 243 287 302 297 303 306 264 133 147 166 197 216 232 240
150 149 156 164 149 140 142 140 141 146 150 153 153 155 158 157 156 155 159 165 166 174 176 180 185 193 204 224 247 269 287 292 293 296 258 230 129 142 177 212 226 236 243
155 153 160 164 169 171 157 144 145 150 154 156 158 159 159 162 164 166 162 172 183 189 188 190 194 202 211 228 244 253 263 275 258 269 278 109 129 145 199 235 244 241 239
163 150 160 159 169 183 164 157 149 159 161 158 161 163 162 194 185 172 195 161 178 190 202 215 219 213 219 231 231 232 241 257 268 259 291 136 126 153 213 241 252 247 243
171 161 158 156 175 184 165 153 186 181 188 192 189 178 205 218 186 208 179 165 181 190 198 205 216 229 232 247 214 210 230 250 265 278 257 144 138 167 232 246 252 248 244
177 169 155 150 181 190 187 155 187 182 193 194 201 189 211 204 198 205 175 186 206 201 220 203 205 222 224 236 245 208 213 209 246 248 124 139 133 168 251 259 255 250 251
342 149 163 141 178 209 197 175 186 193 186 198 198 202 213 221 204 202 219 194 194 206 217 234 212 223 218 229 245 265 261 259 266 267 213 146 142 204 253 261 257 251 245
173 103 156 136 197 184 259 204 228 213 181 203 191 191 223 220 217 213 228 239 219 212 209 223 240 218 220 240 247 242 246 251 265 274 271 161 182 201 224 239 248 252 248
119 113 153 156 168 183 210 232 218 279 266 215 240 196 196 232 233 210 235 216 248 247 243 233 218 238 226 246 234 232 244 260 262 269 267 263 198 207 212 222 231 242 249
159 144 158 168 158 192 205 178 205 218 233 246 228 231 211 208 228 218 222 218 252 240 234 262 285 269 262 265 254 252 244 238 244 244 248 257 266 213 216 216 219 227 236
167 162 179 180 154 178 176 184 197 211 225 224 211 250 234 238 232 235 237 234 229 260 265 235 220 229 235 232 232 240 227 234 235 238 243 247 254 271 236 218 218 217 224
200 198 180 176 162 170 155 167 207 231 214 283 279 215 206 227 228 232 228 235 216 266 274 254 246 251 253 251 252 236 235 248 265 250 239 252 263 261 263 267 217 216 217
193 189 190 167 187 173 158 154 166 103 200 270 287 288 220 184 225 225 236 227 200 203 237 247 262 270 270 258 252 255 224 244 250 248 249 249 248 245 240 246 252 237 217
90 167 170 168 140 211 230 222 197 195 162 220 258 262 293 319 239 227 237 238 238 239 225 237 244 234 261 287 285 257 257 238 244 248 241 238 232 237 236 236 226 234 245
121 127 120 134 139 207 195 276 305 286 244 237 243 237 258 251 234 235 242 240 248 264 267 263 247 255 253 250 243 250 260 246 219 224 226 236 231 235 236 235 246 266 231
112 121 97 76 80 41 340 171 102 304 289 277 271 271 252 239 243 236 247 243 243 109 143 324 255 236 214 231 216 216 259 250 278 228 222 226 237 250 260 264 245 249 240
101 92 84 78 89 73 46 37 343 245 262 343 277 151 307 282 291 265 233 250 211 195 233 208 246 233 227 235 205 228 241 280 283 282 224 221 218 243 239 258 270 271 241
111 103 95 84 77 77 70 52 110 14 57 301 331 14 303 269 271 305 324 322 238 208 225 250 243 235 245 238 257 258 234 231 245 256 271 260 236 245 249 240 254 250 241
126 112 104 91 79 70 70 82 79 71 351 341 353 316 293 318 310 291 298 317 320 317 303 258 244 248 241 239 243 240 246 244 233 229 256 265 278 282 278 265 261 255 256